This demonstration page uses our WeatherBlox Daily Observations layout. Learn more.

Left ArrowRight Arrow

Hourly Observations for May 8, 2021

Temp ( °F °C ) Dew Point ( °F °C ) Humidity (%) Winds ( mph kmh ) Pressure ( in mb ) Visibility ( mi km ) Precip ( " mm )
12:15 am 00:15 Clear 41 5 36 2 81 81 N N/A 30.07 1018 10 16.0934 N/A
12:35 am 00:35 Clear 43 6 36 2 76 76 N N/A 30.07 1018 10 16.0934 N/A
12:55 am 00:55 Clear 41 5 36 2 81 81 N N/A 30.08 1019 10 16.0934 N/A
1:15 am 01:15 Clear 41 5 36 2 81 81 N N/A 30.08 1019 10 16.0934 N/A
1:35 am 01:35 Clear 39 4 36 2 87 87 N N/A 30.08 1019 10 16.0934 N/A
1:55 am 01:55 Clear 39 4 36 2 87 87 N N/A 30.08 1019 10 16.0934 N/A
2:15 am 02:15 Clear 39 4 36 2 87 87 N N/A 30.07 1018 10 16.0934 N/A
2:35 am 02:35 Clear 37 3 36 2 93 93 N N/A 30.07 1018 10 16.0934 N/A
2:55 am 02:55 Clear 37 3 36 2 93 93 N N/A 30.08 1019 10 16.0934 N/A
3:15 am 03:15 Clear 37 3 34 1 87 87 N N/A 30.08 1019 10 16.0934 N/A
3:35 am 03:35 Clear 37 3 34 1 87 87 N N/A 30.09 1019 10 16.0934 N/A
3:55 am 03:55 Clear 37 3 34 1 87 87 N N/A 30.09 1019 10 16.0934 N/A
4:15 am 04:15 Clear 36 2 34 1 93 93 N N/A 30.11 1020 10 16.0934 N/A
4:35 am 04:35 Clear 36 2 34 1 93 93 N N/A 30.11 1020 10 16.0934 N/A
4:55 am 04:55 Clear 36 2 34 1 93 93 N N/A 30.12 1020 10 16.0934 N/A
5:15 am 05:15 Clear 36 2 34 1 93 93 N N/A 30.13 1020 10 16.0934 N/A
5:35 am 05:35 Clear 34 1 34 1 100 100 N N/A 30.14 1021 10 16.0934 N/A
5:55 am 05:55 Clear 34 1 34 1 100 100 N N/A 30.13 1020 10 16.0934 N/A
6:15 am 06:15 Clear 34 1 34 1 100 100 N N/A 30.13 1020 10 16.0934 N/A
6:35 am 06:35 Clear 32 undefined 32 undefined 100 100 N N/A 30.15 1021 10 16.0934 N/A
6:55 am 06:55 Sunny 34 1 34 1 100 100 N N/A 30.15 1021 10 16.0934 N/A
7:15 am 07:15 Sunny 34 1 34 1 100 100 N N/A 30.15 1021 10 16.0934 N/A
7:35 am 07:35 Sunny 36 2 36 2 100 100 N N/A 30.16 1021 10 16.0934 N/A
7:55 am 07:55 Sunny 37 3 36 2 93 93 N N/A 30.16 1021 10 16.0934 N/A
8:15 am 08:15 Sunny 39 4 37 3 93 93 N N/A 30.17 1022 10 16.0934 N/A
8:35 am 08:35 Sunny 41 5 37 3 87 87 N N/A 30.17 1022 10 16.0934 N/A
8:55 am 08:55 Sunny 43 6 37 3 81 81 N N/A 30.17 1022 10 16.0934 N/A
9:15 am 09:15 Sunny 43 6 37 3 81 81 N N/A 30.18 1022 10 16.0934 N/A
9:35 am 09:35 Sunny 45 7 37 3 76 76 N N/A 30.18 1022 10 16.0934 N/A
9:55 am 09:55 Sunny 46 8 37 3 71 71 N N/A 30.18 1022 10 16.0934 N/A
10:15 am 10:15 Sunny 46 8 37 3 71 71 N N/A 30.18 1022 10 16.0934 N/A
10:35 am 10:35 Sunny 48 9 36 2 62 62 N N/A 30.17 1022 10 16.0934 N/A
10:55 am 10:55 Sunny 48 9 36 2 62 62 N N/A 30.17 1022 10 16.0934 N/A
11:15 am 11:15 Sunny 50 10 37 3 62 62 N N/A 30.17 1022 10 16.0934 N/A
11:35 am 11:35 Sunny 48 9 34 1 58 58 N N/A 30.17 1022 10 16.0934 N/A
11:55 am 11:55 Partly Cloudy 50 10 37 3 62 62 N 3 6 30.17 1022 10 16.0934 N/A
12:15 pm 12:15 Partly Cloudy 52 11 37 3 58 58 N N/A 30.17 1022 10 16.0934 N/A
12:35 pm 12:35 Sunny 52 11 36 2 54 54 N N/A 30.16 1021 10 16.0934 N/A
12:55 pm 12:55 Sunny 54 12 37 3 54 54 N N/A 30.14 1021 10 16.0934 N/A
1:15 pm 13:15 Sunny 54 12 36 2 51 51 N N/A 30.14 1021 10 16.0934 N/A
1:35 pm 13:35 Sunny 54 12 36 2 51 51 N N/A 30.14 1021 10 16.0934 N/A
1:55 pm 13:55 Sunny 54 12 36 2 51 51 N N/A 30.13 1020 10 16.0934 N/A
2:15 pm 14:15 Partly Cloudy 55 13 37 3 51 51 N N/A 30.13 1020 10 16.0934 N/A
2:35 pm 14:35 Partly Cloudy 54 12 37 3 54 54 N N/A 30.12 1020 10 16.0934 N/A
2:55 pm 14:55 Sunny 55 13 36 2 47 47 N N/A 30.11 1020 10 16.0934 N/A
3:15 pm 15:15 Sunny 55 13 39 4 55 55 N N/A 30.1 1019 10 16.0934 N/A
3:35 pm 15:35 Partly Cloudy 55 13 37 3 51 51 N N/A 30.1 1019 10 16.0934 N/A
3:55 pm 15:55 Partly Cloudy 55 13 39 4 55 55 N N/A 30.09 1019 10 16.0934 N/A
4:15 pm 16:15 Sunny 55 13 39 4 55 55 N N/A 30.09 1019 10 16.0934 N/A
4:35 pm 16:35 Sunny 57 14 39 4 51 51 N N/A 30.08 1019 10 16.0934 N/A
4:55 pm 16:55 Sunny 57 14 37 3 48 48 N N/A 30.08 1019 10 16.0934 N/A
5:15 pm 17:15 Sunny 57 14 39 4 51 51 N N/A 30.08 1019 10 16.0934 N/A
5:35 pm 17:35 Sunny 55 13 39 4 55 55 N N/A 30.08 1019 10 16.0934 N/A
5:55 pm 17:55 Sunny 55 13 37 3 51 51 N N/A 30.08 1019 10 16.0934 N/A
6:15 pm 18:15 Sunny 55 13 37 3 51 51 N N/A 30.08 1019 10 16.0934 N/A
6:35 pm 18:35 Sunny 55 13 37 3 51 51 N N/A 30.07 1018 10 16.0934 N/A
6:55 pm 18:55 Mostly Cloudy 54 12 37 3 54 54 N N/A 30.07 1018 10 16.0934 N/A
7:15 pm 19:15 Mostly Cloudy 54 12 37 3 54 54 N N/A 30.07 1018 10 16.0934 N/A
7:35 pm 19:35 Partly Cloudy 54 12 37 3 54 54 N N/A 30.06 1018 10 16.0934 N/A
7:55 pm 19:55 Mostly Cloudy 54 12 39 4 58 58 N N/A 30.04 1017 10 16.0934 N/A
8:15 pm 20:15 Cloudy 52 11 39 4 62 62 N N/A 30.05 1018 10 16.0934 N/A
8:35 pm 20:35 Cloudy 52 11 41 5 67 67 N N/A 30.05 1018 10 16.0934 N/A
8:55 pm 20:55 Cloudy 52 11 41 5 67 67 N N/A 30.04 1017 10 16.0934 N/A
9:15 pm 21:15 Cloudy 52 11 39 4 62 62 N N/A 30.03 1017 10 16.0934 N/A
9:36 pm 21:36 Cloudy 50 10 41 5 71 71 N N/A 30.03 1017 10 16.0934 N/A
9:55 pm 21:55 Cloudy 52 11 41 5 67 67 N N/A 30.03 1017 10 16.0934 N/A
10:15 pm 22:15 Cloudy 52 11 41 5 67 67 N N/A 30.03 1017 10 16.0934 N/A
10:35 pm 22:35 Cloudy 52 11 41 5 67 67 N N/A 30.02 1016 10 16.0934 N/A
10:55 pm 22:55 Cloudy 52 11 41 5 67 67 N N/A 30.03 1017 10 16.0934 N/A
11:15 pm 23:15 Cloudy 50 10 43 6 76 76 NE 3 6 30.03 1017 10 16.0934 N/A
11:35 pm 23:35 Cloudy 48 9 46 8 94 94 NNE 9 15 30.05 1018 7 11.26538 N/A
11:55 pm 23:55 Cloudy 46 8 46 8 100 100 N 3 6 30.07 1018 10 16.0934 N/A

Powered by AerisWeather